STARLINK-5313 (55313 NORAD) Tracking and Keplerian Element Data

This shows tracking and keplerian element data for the satellite.

Feedback or suggestion? Click here.




ElementValue
Catalog55313
NameSTARLINK-5313
Epoch Orbit1739
Epoch Day127.11256816
Epoch Year2023
RAAN126.4373
Inclination69.9982
Eccentricity0.0003504
Argument of Perigee264.3204
Mean Anonmoly95.7592
Mean Motion15.6991825
Decay Rate1.984E-05
L11 55313U 23010AW 23127.11256816 .00001984 00000+0 18271-4 0 9992
L22 55313 69.9982 126.4373 0003504 264.3204 95.7592 15.69918250 17394



Live tracking and technical data element details for STARLINK-5313 (NORAD 55313). STARLINK-5313 can be tracked NOW for your location showing map with azimuth and elevation plus other details from your city location.







IsCatalogInMostPopularTable: catalog: 55313, numindb: -1

Insert: records affected: 1


GetName: 55313 STARLINK-5313

Hit Count: inserted at: Mon, 05 Jun 2023 20:25:27 GMT